SL-14 R/B (11672 NORAD) Tracking and Keplerian Element Data

This shows tracking and keplerian element data for the satellite.

Feedback or suggestion? Click here.




ElementValue
Catalog11672
NameSL-14 R/B
Epoch Orbit25117
Epoch Day15.89368816
Epoch Year2022
RAAN299.3742
Inclination82.5168
Eccentricity0.0017272
Argument of Perigee155.2321
Mean Anonmoly204.9729
Mean Motion14.88103474
Decay Rate2.28E-06
L11 11672U 80005B 22015.89368816 .00000228 00000+0 22023-4 0 9993
L22 11672 82.5168 299.3742 0017272 155.2321 204.9729 14.88103474251172

Live tracking and technical data element details for SL-14 R/B (NORAD 11672). SL-14 R/B can be tracked NOW for your location showing map with azimuth and elevation plus other details from your city location.

Track the satellite on the map from your city or location and see movement details for azimuth, elevation, latitude, longitude, range, height, and movement on the map or in text.







IsCatalogInMostPopularTable: catalog: 11672, numindb: 299
Update: records affected: 1



GetName: 11672 SL-14 R/B

Hit Count: updated at: Mon, 17 Jan 2022 02:16:45 GMT